Location: Arezzo
(43.4170°N, 11.8830°E)
Time: 02:49:03
(UTC+01:00)

STARLINK-2709 - Pass Details

Date: 25 October 2021
Orbit: 546 x 548 km, 53.1° (Epoch: 01 December)

Event Time Altitude Azimuth Distance (km) Brightness Sun altitude
Rises 07:05:05 0° 233° (SW) 2,699 6.7 -6.8°
Reaches altitude 10° 07:07:18 10° 233° (SW) 1,809 5.9 -6.4°
Maximum altitude 07:11:25 90° 237° (WSW) 551 3.6 -5.7°
Drops below altitude 10° 07:15:34 10° 55° (NE) 1,820 6.9 -4.9°
Sets 07:17:48 0° 55° (NE) 2,716 7.9 -4.5°
